[[{"header":{"parameterUnit":"m.s-1","parameterCategory":1,"la1":30.2992,"la2":30.254,"lo1":-89.0895,"lo2":-89.0443,"dy":0.0025,"dx":0.0025,"nx":19,"ny":19,"refTime":"2026-04-04T21:00:00:Z","depth":0,"parameterNumber":2,"parameterNumberName":"U-component_of_WINDS"},"data":[0,0,0,0.3331,0.3334,0.3495,0.3496,0.3697,0.3699,0,0,0,0,0,0,0,0,0,0,0,0.3275,0.3276,0.3331,0.3334,0.3495,0.3496,0.3697,0.3699,0,0,0,0,0,0,0,0,0,0,0,0.3274,0.3276,0.3277,0.3335,0.3495,0.3496,0.3697,0.3578,0,0,0,0,0,0,0,0,0,0,0.3423,0.3361,0.3275,0.3277,0.3336,0.3495,0.3496,0.3573,0.3586,0.3621,0,0.3645,0,0.3675,0.3712,0.3712,0,0,0,0.3342,0.335,0.3401,0.3277,0.3337,0.3495,0.3425,0.358,0.3595,0.3638,0.3648,0.3656,0.3678,0.3713,0.3714,0.3882,0.3882,0,0,0.3333,0.33,0.3391,0.341,0.3379,0.342,0.343,0.3589,0.36,0.3649,0.3661,0.3681,0.3714,0.3716,0.3881,0.3882,0,0,0,0.3302,0.3294,0.3341,0.3402,0.3431,0.3424,0.3436,0.3593,0.361,0.3663,0.3684,0.3715,0.3718,0.3881,0.3881,0.387,0,0,0,0.3298,0.3276,0.3337,0.3318,0.3427,0.3512,0.3436,0.3599,0.3618,0.3683,0.3715,0.372,0.388,0.3881,0.387,0.3871,0,0,0,0.3267,0.3273,0.3292,0.3316,0.3384,0.3511,0.3538,0.3604,0.3631,0.3713,0.372,0.388,0.3881,0.3869,0.387,0.3908,0,0,0,0.3227,0.3281,0.3292,0.3361,0.3382,0.35,0.3537,0.3628,0.3697,0.3716,0.388,0.3881,0.3869,0.387,0.3906,0.3933,0.3941,0,0,0.3277,0.3285,0.3329,0.3344,0.3451,0.3479,0.3588,0.3683,0.3723,0.3828,0.3833,0.387,0.387,0.3907,0.3991,0.3996,0,0,0,0.3334,0.3365,0.3401,0.3463,0.3535,0.3599,0.3681,0.3717,0.3808,0.3768,0.3893,0.3895,0.3918,0.3933,0.3938,0.3961,0.3886,0.3886,0.3886,0.3358,0.3404,0.3481,0.3547,0.3607,0.3692,0.3748,0.3812,0.3842,0.3871,0.3903,0.3947,0.3963,0.3966,0.3991,0.3919,0.3919,0.3919,0.3919,0.3438,0.349,0.3529,0.3616,0.3667,0.3744,0.383,0.3849,0.3931,0.3926,0.3949,0.3941,0.3971,0.3995,0.3919,0.3919,0.3919,0.3919,0.3919,0.346,0.3494,0.3535,0.3631,0.3702,0.3769,0.3846,0.389,0.3932,0.3955,0.3996,0.3996,0.4004,0.3971,0.3971,0.3971,0.3971,0.3971,0.3971,0.3468,0.3515,0.3571,0.3654,0.3701,0.377,0.3858,0.3908,0.3976,0.4002,0.4003,0.4033,0.3963,0.3946,0.3974,0.3974,0.3973,0.3973,0.3973,0.3534,0.3526,0.3613,0.3661,0.3764,0.3834,0.3889,0.3987,0.4036,0.4073,0.4099,0.404,0.4053,0.405,0.4036,0.4086,0.4086,0.4086,0.4086,0.3554,0.3564,0.3665,0.3739,0.3816,0.3876,0.398,0.4052,0.4125,0.4159,0.4159,0.4144,0.4138,0.4156,0.415,0.4138,0.4212,0.4212,0.4213,0.3599,0.3619,0.3696,0.3763,0.3849,0.3923,0.4024,0.4112,0.4194,0.4219,0.4188,0.4183,0.416,0.4149,0.4173,0.4163,0.4142,0,0]},{"header":{"parameterUnit":"m.s-1","parameterCategory":1,"la1":30.2992,"la2":30.254,"lo1":-89.0895,"lo2":-89.0443,"dy":0.0025,"dx":0.0025,"nx":19,"ny":19,"refTime":"2026-04-04T21:00:00:Z","depth":0,"parameterNumber":3,"parameterNumberName":"V-component_of_WINDS"},"data":[0,0,0,-4.4132,-4.4128,-4.3901,-4.39,-4.3622,-4.3619,0,0,0,0,0,0,0,0,0,0,0,-4.4215,-4.4214,-4.4133,-4.4128,-4.3901,-4.39,-4.3622,-4.3619,0,0,0,0,0,0,0,0,0,0,0,-4.4215,-4.4214,-4.4212,-4.4127,-4.3902,-4.39,-4.3623,-4.3787,0,0,0,0,0,0,0,0,0,0,-4.4004,-4.4098,-4.4214,-4.4212,-4.4126,-4.3902,-4.39,-4.3795,-4.3777,-4.3732,0,-4.3704,0,-4.3658,-4.3602,-4.3601,0,0,0,-4.4113,-4.4113,-4.4039,-4.4212,-4.4124,-4.3902,-4.3999,-4.3785,-4.3764,-4.3708,-4.37,-4.3689,-4.3654,-4.3601,-4.3599,-4.3409,-4.3409,0,0,-4.4126,-4.418,-4.4054,-4.4027,-4.4073,-4.4007,-4.3993,-4.3772,-4.3762,-4.3699,-4.3682,-4.3649,-4.3599,-4.3597,-4.3409,-4.3409,0,0,0,-4.4171,-4.4189,-4.412,-4.4039,-4.3998,-4.4001,-4.3984,-4.3772,-4.3746,-4.3679,-4.3646,-4.3597,-4.3594,-4.3409,-4.3409,-4.3455,0,0,0,-4.4178,-4.4216,-4.4127,-4.4157,-4.4003,-4.3884,-4.399,-4.3761,-4.3735,-4.3647,-4.3597,-4.3592,-4.3409,-4.3409,-4.3454,-4.3465,0,0,0,-4.4224,-4.4221,-4.4195,-4.4161,-4.4067,-4.3887,-4.3847,-4.3754,-4.3715,-4.3601,-4.3591,-4.341,-4.3409,-4.3453,-4.3464,-4.3432,0,0,0,-4.4286,-4.4233,-4.4196,-4.4124,-4.4069,-4.392,-4.3848,-4.3732,-4.364,-4.3596,-4.3409,-4.3409,-4.3453,-4.3463,-4.3432,-4.3414,-4.3414,0,0,-4.4248,-4.423,-4.4183,-4.4144,-4.4018,-4.395,-4.3825,-4.3685,-4.3619,-4.348,-4.3475,-4.3454,-4.3463,-4.3432,-4.3391,-4.3391,0,0,0,-4.4189,-4.4156,-4.4111,-4.4031,-4.3929,-4.384,-4.3715,-4.3663,-4.3544,-4.3563,-4.3433,-4.3436,-4.3415,-4.3404,-4.3404,-4.3381,-4.3407,-4.3407,-4.3407,-4.421,-4.4138,-4.4055,-4.3957,-4.3879,-4.3754,-4.3681,-4.3588,-4.353,-4.3501,-4.3459,-4.3444,-4.3434,-4.3433,-4.3411,-4.3445,-4.3445,-4.3445,-4.3445,-4.4147,-4.4089,-4.4023,-4.3919,-4.384,-4.3748,-4.3623,-4.3587,-4.3485,-4.3469,-4.3446,-4.3434,-4.3436,-4.3411,-4.3448,-4.3448,-4.3447,-4.3447,-4.3447,-4.4152,-4.4111,-4.4056,-4.3936,-4.3849,-4.3747,-4.3656,-4.3584,-4.3515,-4.3494,-4.344,-4.3439,-4.3427,-4.3474,-4.3474,-4.3474,-4.3474,-4.3474,-4.3474,-4.4178,-4.4114,-4.4051,-4.3942,-4.3883,-4.3795,-4.367,-4.3606,-4.3516,-4.347,-4.3469,-4.3414,-4.3452,-4.3462,-4.3473,-4.3473,-4.3473,-4.3473,-4.3473,-4.4137,-4.4137,-4.4039,-4.3981,-4.3848,-4.3766,-4.368,-4.3556,-4.3493,-4.3449,-4.3399,-4.344,-4.3412,-4.3412,-4.342,-4.3418,-4.3418,-4.3418,-4.3418,-4.414,-4.4123,-4.4009,-4.392,-4.3824,-4.3738,-4.3622,-4.3524,-4.342,-4.3375,-4.3365,-4.337,-4.3373,-4.3343,-4.3344,-4.3349,-4.333,-4.333,-4.333,-4.411,-4.4082,-4.4001,-4.391,-4.3801,-4.3707,-4.3596,-4.3489,-4.337,-4.3325,-4.3337,-4.3341,-4.3347,-4.3354,-4.3307,-4.331,-4.3319,0,0]}]]